RRR6624 EGDM-LXGB

Flight info

Callsign RRR6624
Flight time 3h 7m
Altitude 40000
Route VLN DCT LND DCT GAPLI/M086F400 DCT LASNO T9 BEGAS/N0488F400 DCT XERES/N0493F410 DCT LATRU DCT ORTOP T100 AMPIR DCT ODLUK DCT UNBUT
Aircraft C17/H-SDFGHIRTUWXYZ/LB1

Departure

Time 2026-04-26 10:25
Airport MoD Boscombe Down (EGDM)

Arrival

Time 2026-04-26 13:32
Airport Gibraltar Airport (LXGB)
Time Latitude Longitude Altitude Speed Heading
2026-04-26 10:02 51.16388 -1.74322 397 ft 0 kts 60°
2026-04-26 10:21 51.16398 -1.74295 394 ft 4 kts 59°
2026-04-26 10:22 51.16420 -1.74224 395 ft 10 kts 77°
2026-04-26 10:22 51.16415 -1.74086 393 ft 15 kts 103°
2026-04-26 10:22 51.16384 -1.73914 394 ft 18 kts 106°
2026-04-26 10:22 51.16351 -1.73739 393 ft 10 kts 109°
2026-04-26 10:23 51.16325 -1.73611 391 ft 15 kts 108°
2026-04-26 10:23 51.16289 -1.73437 391 ft 16 kts 125°
2026-04-26 10:23 51.16207 -1.73437 392 ft 12 kts 229°
2026-04-26 10:23 51.16180 -1.73489 393 ft 0 kts 230°
2026-04-26 10:24 51.16126 -1.73590 391 ft 43 kts 230°
2026-04-26 10:24 51.15775 -1.74247 390 ft 109 kts 230°
2026-04-26 10:24 51.15187 -1.75379 405 ft 150 kts 227°
2026-04-26 10:25 51.14568 -1.76634 994 ft 141 kts 229°
2026-04-26 10:25 51.13985 -1.77891 1585 ft 140 kts 229°
2026-04-26 10:25 51.13394 -1.79119 2247 ft 140 kts 226°
2026-04-26 10:25 51.12699 -1.80363 2826 ft 162 kts 213°
2026-04-26 10:26 51.11640 -1.81255 3346 ft 182 kts 193°
2026-04-26 10:26 51.10328 -1.81516 3873 ft 200 kts 184°
2026-04-26 10:26 51.09016 -1.82615 4299 ft 236 kts 227°
2026-04-26 10:26 51.08471 -1.85200 4811 ft 264 kts 265°
2026-04-26 10:27 51.08470 -1.88131 5444 ft 263 kts 266°
2026-04-26 10:27 51.08210 -1.91104 6236 ft 278 kts 257°
2026-04-26 10:27 51.07824 -1.94098 7014 ft 278 kts 259°
2026-04-26 10:27 51.07552 -1.97150 7757 ft 279 kts 261°
2026-04-26 10:28 51.07271 -2.00218 8502 ft 282 kts 259°
2026-04-26 10:28 51.06924 -2.03294 9272 ft 284 kts 258°
2026-04-26 10:28 51.06594 -2.06386 10047 ft 284 kts 259°
2026-04-26 10:28 51.06283 -2.09510 10780 ft 286 kts 260°
2026-04-26 10:29 51.05967 -2.12611 11511 ft 292 kts 259°
2026-04-26 10:29 51.05614 -2.15908 12113 ft 314 kts 259°
2026-04-26 10:29 51.05237 -2.19453 12650 ft 336 kts 259°
2026-04-26 10:29 51.04850 -2.23217 13186 ft 352 kts 259°
2026-04-26 10:30 51.04447 -2.27058 13855 ft 360 kts 259°
2026-04-26 10:30 51.04026 -2.31025 14367 ft 366 kts 259°
2026-04-26 10:30 51.03600 -2.35030 14846 ft 370 kts 259°
2026-04-26 10:30 51.03170 -2.39095 15340 ft 374 kts 259°
2026-04-26 10:31 51.02732 -2.43180 15848 ft 376 kts 259°
2026-04-26 10:31 51.02293 -2.47297 16330 ft 381 kts 259°
2026-04-26 10:31 51.01845 -2.51466 16852 ft 383 kts 259°
2026-04-26 10:31 51.01394 -2.55649 17370 ft 386 kts 258°
2026-04-26 10:32 51.00931 -2.59887 17898 ft 391 kts 258°
2026-04-26 10:32 51.00402 -2.64121 18423 ft 393 kts 251°
2026-04-26 10:32 50.99345 -2.68168 18915 ft 397 kts 244°
2026-04-26 10:32 50.98217 -2.72168 19403 ft 398 kts 245°
2026-04-26 10:33 50.97134 -2.76236 19882 ft 402 kts 246°
2026-04-26 10:33 50.96030 -2.80338 20368 ft 405 kts 245°
2026-04-26 10:33 50.94887 -2.84428 20861 ft 407 kts 245°
2026-04-26 10:33 50.93750 -2.88544 21367 ft 409 kts 245°
2026-04-26 10:34 50.92622 -2.92701 21885 ft 412 kts 245°
2026-04-26 10:34 50.91472 -2.96884 22386 ft 416 kts 245°
2026-04-26 10:34 50.90317 -3.01031 22925 ft 417 kts 245°
2026-04-26 10:34 50.89147 -3.05269 23464 ft 422 kts 245°
2026-04-26 10:35 50.87969 -3.09540 24005 ft 424 kts 245°
2026-04-26 10:35 50.86782 -3.13820 24442 ft 426 kts 245°
2026-04-26 10:35 50.85582 -3.18129 24915 ft 429 kts 245°
2026-04-26 10:35 50.84374 -3.22462 25396 ft 432 kts 245°
2026-04-26 10:36 50.83162 -3.26820 25880 ft 434 kts 246°
2026-04-26 10:36 50.81946 -3.31171 26373 ft 431 kts 246°
2026-04-26 10:36 50.80729 -3.35503 26872 ft 433 kts 246°
2026-04-26 10:36 50.79506 -3.39871 27380 ft 436 kts 246°
2026-04-26 10:37 50.78284 -3.44226 27897 ft 432 kts 246°
2026-04-26 10:37 50.77062 -3.48556 28424 ft 429 kts 246°
2026-04-26 10:37 50.75845 -3.52874 28963 ft 433 kts 246°
2026-04-26 10:37 50.74615 -3.57234 29497 ft 437 kts 246°
2026-04-26 10:38 50.73368 -3.61633 30079 ft 440 kts 245°
2026-04-26 10:38 50.72153 -3.65918 30583 ft 420 kts 245°
2026-04-26 10:38 50.70951 -3.70148 31063 ft 424 kts 245°
2026-04-26 10:38 50.69740 -3.74403 31573 ft 427 kts 245°
2026-04-26 10:39 50.68517 -3.78687 32047 ft 430 kts 245°
2026-04-26 10:39 50.67276 -3.83038 32271 ft 437 kts 245°
2026-04-26 10:39 50.66071 -3.87248 32271 ft 407 kts 245°
2026-04-26 10:39 50.64914 -3.91286 32272 ft 407 kts 245°
2026-04-26 10:40 50.62532 -3.99570 32279 ft 418 kts 245°
2026-04-26 10:40 50.60125 -4.07907 32282 ft 418 kts 245°
2026-04-26 10:41 50.57731 -4.16187 32280 ft 418 kts 245°
2026-04-26 10:41 50.55311 -4.24517 32275 ft 420 kts 245°
2026-04-26 10:42 50.53287 -4.31460 32275 ft 420 kts 245°
2026-04-26 10:42 50.50852 -4.39794 32273 ft 420 kts 245°
2026-04-26 10:43 50.48425 -4.48072 32274 ft 417 kts 245°
2026-04-26 10:43 50.45985 -4.56352 32278 ft 418 kts 245°
2026-04-26 10:44 50.43551 -4.64602 32287 ft 417 kts 245°
2026-04-26 10:44 50.41088 -4.72910 32282 ft 421 kts 245°
2026-04-26 10:45 50.38627 -4.81188 32279 ft 419 kts 244°
2026-04-26 10:45 50.36157 -4.89465 32278 ft 420 kts 244°
2026-04-26 10:46 50.33676 -4.97745 32278 ft 419 kts 244°
2026-04-26 10:46 50.31198 -5.05998 32279 ft 420 kts 244°
2026-04-26 10:47 50.28713 -5.14241 32267 ft 418 kts 244°
2026-04-26 10:47 50.26227 -5.22455 32259 ft 419 kts 244°
2026-04-26 10:48 50.23730 -5.30687 32262 ft 418 kts 244°
2026-04-26 10:48 50.21247 -5.38837 32259 ft 418 kts 244°
2026-04-26 10:49 50.18742 -5.47038 32257 ft 419 kts 244°
2026-04-26 10:49 50.16232 -5.55229 32273 ft 417 kts 244°
2026-04-26 10:50 50.13852 -5.63469 32255 ft 418 kts 254°
2026-04-26 10:50 50.13203 -5.72497 32280 ft 421 kts 264°
2026-04-26 10:51 50.12548 -5.86109 32280 ft 420 kts 264°
2026-04-26 10:52 50.12089 -5.95193 32292 ft 420 kts 264°
2026-04-26 10:52 50.11635 -6.04255 32286 ft 418 kts 263°
2026-04-26 10:53 50.11171 -6.13307 32292 ft 420 kts 263°
2026-04-26 10:53 50.10698 -6.22362 32293 ft 419 kts 263°
2026-04-26 10:54 50.09977 -6.35932 32293 ft 420 kts 263°
2026-04-26 10:54 50.09489 -6.44984 32295 ft 418 kts 262°
2026-04-26 10:55 50.08996 -6.53986 32288 ft 417 kts 262°
2026-04-26 10:55 50.08498 -6.62937 32300 ft 418 kts 262°
2026-04-26 10:56 50.07989 -6.71931 32294 ft 417 kts 262°
2026-04-26 10:56 50.07476 -6.80934 32302 ft 418 kts 262°
2026-04-26 10:57 50.06955 -6.89934 32286 ft 417 kts 262°
2026-04-26 10:57 50.06428 -6.98877 32285 ft 415 kts 262°
2026-04-26 10:58 50.05894 -7.07847 32288 ft 416 kts 262°
2026-04-26 10:58 50.05356 -7.16801 32287 ft 415 kts 262°
2026-04-26 10:59 50.04807 -7.25756 32289 ft 416 kts 262°
2026-04-26 10:59 50.04253 -7.34718 32297 ft 416 kts 261°
2026-04-26 11:00 50.03691 -7.43689 32298 ft 417 kts 261°
2026-04-26 11:00 50.03123 -7.52654 32301 ft 416 kts 261°
2026-04-26 11:01 50.02544 -7.61616 32305 ft 417 kts 260°
2026-04-26 11:01 50.01963 -7.70593 32301 ft 417 kts 260°
2026-04-26 11:02 50.01378 -7.79485 32300 ft 418 kts 260°
2026-04-26 11:02 50.00777 -7.88484 32306 ft 418 kts 260°
2026-04-26 11:03 50.00294 -7.92908 32298 ft 412 kts 249°
2026-04-26 11:03 49.99163 -7.96945 32309 ft 407 kts 237°
2026-04-26 11:03 49.97482 -8.00450 32306 ft 404 kts 224°
2026-04-26 11:03 49.95334 -8.03246 32305 ft 402 kts 212°
2026-04-26 11:04 49.90339 -8.07104 32304 ft 401 kts 205°
2026-04-26 11:04 49.85293 -8.10794 32307 ft 401 kts 205°
2026-04-26 11:05 49.80250 -8.14478 32305 ft 401 kts 205°
2026-04-26 11:05 49.75202 -8.18154 32299 ft 399 kts 205°
2026-04-26 11:06 49.70191 -8.21800 32293 ft 399 kts 205°
2026-04-26 11:06 49.65162 -8.25451 32291 ft 398 kts 205°
2026-04-26 11:07 49.60192 -8.29045 32293 ft 398 kts 205°
2026-04-26 11:07 49.55171 -8.32671 32296 ft 398 kts 205°
2026-04-26 11:08 49.50163 -8.36283 32297 ft 398 kts 205°
2026-04-26 11:08 49.45137 -8.39894 32306 ft 399 kts 205°
2026-04-26 11:09 49.40129 -8.43485 32298 ft 396 kts 205°
2026-04-26 11:09 49.35134 -8.47064 32295 ft 397 kts 205°
2026-04-26 11:10 49.30118 -8.50644 32302 ft 397 kts 205°
2026-04-26 11:10 49.25120 -8.54202 32301 ft 397 kts 205°
2026-04-26 11:11 49.20105 -8.57770 32295 ft 397 kts 205°
2026-04-26 11:11 49.15121 -8.61306 32293 ft 393 kts 205°
2026-04-26 11:12 49.10134 -8.64832 32294 ft 396 kts 205°
2026-04-26 11:12 49.05177 -8.68333 32296 ft 394 kts 205°
2026-04-26 11:13 49.00192 -8.71849 32298 ft 396 kts 205°
2026-04-26 11:13 48.95195 -8.75359 32302 ft 394 kts 205°
2026-04-26 11:14 48.90238 -8.78835 32297 ft 393 kts 205°
2026-04-26 11:14 48.86014 -8.81794 32313 ft 404 kts 204°
2026-04-26 11:15 48.80111 -8.85918 32306 ft 400 kts 204°
2026-04-26 11:15 48.75032 -8.89456 32308 ft 402 kts 204°
2026-04-26 11:16 48.69965 -8.92976 32301 ft 400 kts 204°
2026-04-26 11:16 48.64906 -8.96489 32300 ft 400 kts 204°
2026-04-26 11:17 48.59737 -8.99608 32301 ft 401 kts 192°
2026-04-26 11:17 48.54157 -8.99998 32312 ft 404 kts 182°
2026-04-26 11:18 48.48529 -9.00010 32306 ft 403 kts 182°
2026-04-26 11:18 48.42922 -8.99995 32310 ft 403 kts 182°
2026-04-26 11:19 48.37299 -9.00000 32307 ft 404 kts 182°
2026-04-26 11:19 48.31729 -9.00001 32306 ft 403 kts 182°
2026-04-26 11:20 48.27026 -8.99998 32298 ft 403 kts 182°
2026-04-26 11:20 48.20527 -8.99998 32297 ft 402 kts 182°
2026-04-26 11:21 48.14928 -9.00001 32302 ft 403 kts 182°
2026-04-26 11:21 48.09325 -9.00000 32299 ft 402 kts 182°
2026-04-26 11:22 48.03740 -8.99998 32295 ft 401 kts 182°
2026-04-26 11:22 47.98167 -9.00000 32294 ft 401 kts 182°
2026-04-26 11:23 47.92585 -9.00001 32296 ft 401 kts 182°
2026-04-26 11:23 47.87007 -8.99998 32282 ft 400 kts 182°
2026-04-26 11:24 47.81444 -8.99998 32301 ft 399 kts 182°
2026-04-26 11:24 47.75893 -9.00001 32297 ft 399 kts 182°
2026-04-26 11:25 47.70331 -9.00000 32298 ft 400 kts 182°
2026-04-26 11:25 47.64803 -8.99998 32296 ft 398 kts 183°
2026-04-26 11:26 47.59270 -9.00000 32294 ft 398 kts 183°
2026-04-26 11:26 47.53728 -9.00002 32295 ft 399 kts 183°
2026-04-26 11:27 47.48188 -8.99998 32297 ft 398 kts 183°
2026-04-26 11:27 47.42654 -8.99999 32299 ft 397 kts 183°
2026-04-26 11:28 47.37134 -9.00001 32292 ft 396 kts 183°
2026-04-26 11:28 47.31617 -9.00000 32295 ft 397 kts 183°
2026-04-26 11:29 47.26087 -8.99998 32303 ft 397 kts 183°
2026-04-26 11:29 47.20583 -9.00001 32294 ft 395 kts 183°
2026-04-26 11:30 47.16009 -8.99999 32298 ft 395 kts 183°
2026-04-26 11:30 47.10499 -8.99999 32295 ft 396 kts 183°
2026-04-26 11:31 47.04989 -9.00001 32293 ft 395 kts 183°
2026-04-26 11:31 46.99485 -9.00000 32292 ft 396 kts 184°
2026-04-26 11:32 46.93962 -8.99998 32288 ft 396 kts 184°
2026-04-26 11:32 46.88448 -9.00001 32288 ft 396 kts 184°
2026-04-26 11:33 46.82931 -9.00001 32296 ft 398 kts 184°
2026-04-26 11:33 46.77393 -8.99998 32289 ft 399 kts 184°
2026-04-26 11:34 46.71877 -9.00000 32291 ft 398 kts 184°
2026-04-26 11:34 46.66340 -9.00002 32290 ft 398 kts 184°
2026-04-26 11:35 46.60758 -8.99999 32266 ft 398 kts 184°
2026-04-26 11:35 46.55251 -9.00000 32284 ft 399 kts 184°
2026-04-26 11:36 46.49697 -9.00001 32287 ft 398 kts 184°
2026-04-26 11:36 46.44154 -9.00000 32288 ft 398 kts 184°
2026-04-26 11:37 46.38602 -8.99999 32298 ft 399 kts 184°
2026-04-26 11:37 46.33053 -9.00001 32289 ft 398 kts 184°
2026-04-26 11:38 46.27500 -9.00001 32287 ft 399 kts 184°
2026-04-26 11:38 46.21949 -8.99998 32293 ft 399 kts 184°
2026-04-26 11:39 46.16407 -9.00001 32287 ft 399 kts 184°
2026-04-26 11:39 46.10846 -9.00001 32275 ft 399 kts 184°
2026-04-26 11:40 46.05332 -8.99999 32283 ft 399 kts 184°
2026-04-26 11:40 45.99777 -8.99999 32277 ft 399 kts 184°
2026-04-26 11:42 45.77453 -9.00002 32270 ft 404 kts 184°
2026-04-26 11:43 45.71830 -8.99999 32271 ft 403 kts 184°
2026-04-26 11:43 45.66228 -9.00000 32272 ft 403 kts 184°
2026-04-26 11:44 45.60610 -9.00002 32264 ft 403 kts 184°
2026-04-26 11:44 45.54989 -9.00001 32282 ft 405 kts 184°
2026-04-26 11:45 45.49374 -8.99998 32273 ft 403 kts 185°
2026-04-26 11:45 45.43750 -9.00001 32278 ft 404 kts 184°
2026-04-26 11:46 45.38160 -9.00002 32270 ft 406 kts 184°
2026-04-26 11:46 45.32497 -8.99998 32271 ft 406 kts 184°
2026-04-26 11:47 45.26853 -9.00002 32271 ft 406 kts 184°
2026-04-26 11:47 45.21201 -9.00001 32255 ft 406 kts 184°
2026-04-26 11:48 45.15525 -9.00000 32264 ft 409 kts 184°
2026-04-26 11:48 45.09853 -8.99999 32257 ft 407 kts 184°
2026-04-26 11:49 45.04179 -9.00003 32258 ft 408 kts 184°
2026-04-26 11:49 44.98550 -9.00534 32267 ft 404 kts 198°
2026-04-26 11:50 44.93115 -9.02604 32262 ft 403 kts 197°
2026-04-26 11:50 44.87698 -9.04635 32267 ft 403 kts 198°
2026-04-26 11:51 44.82264 -9.06678 32245 ft 404 kts 198°
2026-04-26 11:51 44.76804 -9.08731 32248 ft 407 kts 198°
2026-04-26 11:52 44.72260 -9.10425 32247 ft 405 kts 198°
2026-04-26 11:52 44.65927 -9.12795 32256 ft 403 kts 198°
2026-04-26 11:53 44.60497 -9.14823 32247 ft 407 kts 198°
2026-04-26 11:54 44.52262 -9.17883 32245 ft 407 kts 198°
2026-04-26 11:54 44.46778 -9.19916 32243 ft 408 kts 198°
2026-04-26 11:55 44.41300 -9.21947 32246 ft 407 kts 198°
2026-04-26 11:55 44.35826 -9.23972 32246 ft 408 kts 198°
2026-04-26 11:56 44.30339 -9.25992 32241 ft 407 kts 198°
2026-04-26 11:56 44.24860 -9.28011 32240 ft 407 kts 198°
2026-04-26 11:57 44.19362 -9.30035 32237 ft 411 kts 198°
2026-04-26 11:57 44.13833 -9.32057 32236 ft 409 kts 198°
2026-04-26 11:58 44.08327 -9.34076 32235 ft 410 kts 198°
2026-04-26 11:58 44.02800 -9.36096 32221 ft 410 kts 198°
2026-04-26 11:59 43.97249 -9.38120 32228 ft 414 kts 198°
2026-04-26 11:59 43.91699 -9.40136 32229 ft 412 kts 198°
2026-04-26 12:00 43.86145 -9.42158 32227 ft 413 kts 198°
2026-04-26 12:00 43.80593 -9.44171 32224 ft 415 kts 198°
2026-04-26 12:01 43.74989 -9.46194 32226 ft 415 kts 197°
2026-04-26 12:01 43.69455 -9.48198 32228 ft 412 kts 198°
2026-04-26 12:02 43.63886 -9.50204 32223 ft 414 kts 198°
2026-04-26 12:02 43.58293 -9.52215 32208 ft 418 kts 198°
2026-04-26 12:03 43.52681 -9.54231 32212 ft 416 kts 198°
2026-04-26 12:03 43.47073 -9.56242 32209 ft 417 kts 198°
2026-04-26 12:04 43.41463 -9.58245 32208 ft 416 kts 197°
2026-04-26 12:04 43.35809 -9.60268 32210 ft 420 kts 197°
2026-04-26 12:05 43.30163 -9.62278 32203 ft 419 kts 197°
2026-04-26 12:05 43.24505 -9.64288 32201 ft 420 kts 197°
2026-04-26 12:06 43.18858 -9.66296 32195 ft 421 kts 197°
2026-04-26 12:06 43.13170 -9.68311 32195 ft 421 kts 197°
2026-04-26 12:07 43.07496 -9.70315 32197 ft 421 kts 197°
2026-04-26 12:07 43.01820 -9.72319 32194 ft 422 kts 197°
2026-04-26 12:08 42.96163 -9.74314 32187 ft 424 kts 197°
2026-04-26 12:08 42.90463 -9.76315 32177 ft 423 kts 197°
2026-04-26 12:09 42.84761 -9.78316 32179 ft 422 kts 197°
2026-04-26 12:09 42.79061 -9.80315 32183 ft 424 kts 197°
2026-04-26 12:10 42.73340 -9.82313 32176 ft 425 kts 197°
2026-04-26 12:10 42.67616 -9.84310 32175 ft 423 kts 197°
2026-04-26 12:11 42.61908 -9.86300 32177 ft 425 kts 197°
2026-04-26 12:11 42.56188 -9.88285 32181 ft 425 kts 197°
2026-04-26 12:12 42.50469 -9.90271 32184 ft 425 kts 197°
2026-04-26 12:12 42.44741 -9.92254 32175 ft 427 kts 197°
2026-04-26 12:13 42.39007 -9.94236 32178 ft 424 kts 197°
2026-04-26 12:13 42.33265 -9.96217 32172 ft 426 kts 197°
2026-04-26 12:14 42.27533 -9.98191 32181 ft 426 kts 197°
2026-04-26 12:14 42.21789 -10.00164 32180 ft 424 kts 197°
2026-04-26 12:15 42.16052 -10.02133 32172 ft 427 kts 196°
2026-04-26 12:15 42.10301 -10.04102 32173 ft 427 kts 196°
2026-04-26 12:16 42.04531 -10.06073 32169 ft 425 kts 196°
2026-04-26 12:16 42.01617 -10.06794 32159 ft 430 kts 184°
2026-04-26 12:16 41.98610 -10.06734 32186 ft 434 kts 181°
2026-04-26 12:17 41.92600 -10.06687 32170 ft 431 kts 182°
2026-04-26 12:17 41.86566 -10.06560 32176 ft 434 kts 181°
2026-04-26 12:18 41.80556 -10.06498 32178 ft 431 kts 182°
2026-04-26 12:18 41.74519 -10.06394 32168 ft 435 kts 181°
2026-04-26 12:19 41.68488 -10.06319 32173 ft 433 kts 181°
2026-04-26 12:19 41.62464 -10.06224 32171 ft 436 kts 181°
2026-04-26 12:20 41.56436 -10.06143 32163 ft 433 kts 181°
2026-04-26 12:20 41.51405 -10.06068 32165 ft 438 kts 181°
2026-04-26 12:21 41.45270 -10.05980 32168 ft 436 kts 181°
2026-04-26 12:21 41.39183 -10.05892 32167 ft 439 kts 181°
2026-04-26 12:22 41.33142 -10.05808 32163 ft 436 kts 181°
2026-04-26 12:22 41.27016 -10.05719 32166 ft 442 kts 180°
2026-04-26 12:23 41.20897 -10.05633 32163 ft 439 kts 180°
2026-04-26 12:23 41.14769 -10.05544 32164 ft 441 kts 180°
2026-04-26 12:24 41.08650 -10.05460 32159 ft 441 kts 180°
2026-04-26 12:24 41.02494 -10.05370 32158 ft 442 kts 180°
2026-04-26 12:25 40.93281 -10.05241 32154 ft 442 kts 180°
2026-04-26 12:25 40.87148 -10.05155 32155 ft 439 kts 180°
2026-04-26 12:26 40.81034 -10.05069 32156 ft 441 kts 180°
2026-04-26 12:26 40.74946 -10.04983 32158 ft 439 kts 180°
2026-04-26 12:27 40.68825 -10.04898 32156 ft 441 kts 180°
2026-04-26 12:27 40.62715 -10.04812 32153 ft 437 kts 180°
2026-04-26 12:28 40.56605 -10.04726 32155 ft 441 kts 180°
2026-04-26 12:28 40.50498 -10.04643 32153 ft 438 kts 180°
2026-04-26 12:29 40.44387 -10.04555 32160 ft 437 kts 180°
2026-04-26 12:30 40.35307 -10.04432 32156 ft 438 kts 180°
2026-04-26 12:30 40.29236 -10.04346 32155 ft 434 kts 180°
2026-04-26 12:31 40.20136 -10.04220 32158 ft 437 kts 180°
2026-04-26 12:31 40.14079 -10.04139 32156 ft 435 kts 180°
2026-04-26 12:32 40.08036 -10.04053 32158 ft 436 kts 180°
2026-04-26 12:33 39.98963 -10.03930 32149 ft 435 kts 180°
2026-04-26 12:33 39.92915 -10.03847 32151 ft 433 kts 181°
2026-04-26 12:34 39.86887 -10.03766 32148 ft 436 kts 180°
2026-04-26 12:34 39.80840 -10.03681 32148 ft 432 kts 181°
2026-04-26 12:35 39.74813 -10.03601 32145 ft 435 kts 181°
2026-04-26 12:35 39.68782 -10.03517 32146 ft 431 kts 181°
2026-04-26 12:36 39.62763 -10.03437 32146 ft 435 kts 181°
2026-04-26 12:36 39.56729 -10.03354 32141 ft 431 kts 181°
2026-04-26 12:37 39.50699 -10.03274 32143 ft 436 kts 181°
2026-04-26 12:37 39.44663 -10.03191 32142 ft 432 kts 181°
2026-04-26 12:38 39.38670 -10.03111 32145 ft 435 kts 181°
2026-04-26 12:38 39.32628 -10.03029 32137 ft 433 kts 181°
2026-04-26 12:39 39.26580 -10.02949 32139 ft 436 kts 181°
2026-04-26 12:39 39.20536 -10.02867 32139 ft 433 kts 181°
2026-04-26 12:40 39.14488 -10.02786 32129 ft 436 kts 181°
2026-04-26 12:40 39.08434 -10.02706 32133 ft 434 kts 181°
2026-04-26 12:41 39.02368 -10.02624 32131 ft 437 kts 181°
2026-04-26 12:41 38.96349 -10.02544 32136 ft 433 kts 181°
2026-04-26 12:42 38.90249 -10.02463 32139 ft 437 kts 181°
2026-04-26 12:42 38.84180 -10.02383 32139 ft 435 kts 181°
2026-04-26 12:43 38.78144 -10.02302 32132 ft 439 kts 181°
2026-04-26 12:43 38.72066 -10.02222 32136 ft 435 kts 181°
2026-04-26 12:44 38.65985 -10.02141 32124 ft 438 kts 181°
2026-04-26 12:44 38.59917 -10.02062 32125 ft 435 kts 181°
2026-04-26 12:45 38.53840 -10.01981 32131 ft 438 kts 181°
2026-04-26 12:45 38.50815 -10.01704 32163 ft 437 kts 168°
2026-04-26 12:45 38.47955 -10.00343 32462 ft 445 kts 154°
2026-04-26 12:45 38.45417 -9.98016 32752 ft 453 kts 141°
2026-04-26 12:46 38.43040 -9.95357 33020 ft 454 kts 140°
2026-04-26 12:46 38.38267 -9.89998 33115 ft 458 kts 141°
2026-04-26 12:47 38.33483 -9.84670 33115 ft 456 kts 141°
2026-04-26 12:47 38.28694 -9.79341 33106 ft 459 kts 141°
2026-04-26 12:48 38.23890 -9.74012 33103 ft 457 kts 140°
2026-04-26 12:48 38.19116 -9.68717 33099 ft 455 kts 141°
2026-04-26 12:49 38.14327 -9.63423 33099 ft 456 kts 140°
2026-04-26 12:49 38.09550 -9.58151 33097 ft 455 kts 141°
2026-04-26 12:50 38.04931 -9.52647 33094 ft 459 kts 127°
2026-04-26 12:50 38.03367 -9.49117 33121 ft 461 kts 115°
2026-04-26 12:50 38.02152 -9.45351 33111 ft 462 kts 111°
2026-04-26 12:51 38.00021 -9.37678 33105 ft 460 kts 109°
2026-04-26 12:51 37.98020 -9.30012 33106 ft 462 kts 109°
2026-04-26 12:52 37.96023 -9.22269 33099 ft 461 kts 109°
2026-04-26 12:52 37.94035 -9.14554 33099 ft 461 kts 109°
2026-04-26 12:53 37.92004 -9.06826 33094 ft 461 kts 112°
2026-04-26 12:53 37.89025 -8.99681 33098 ft 459 kts 122°
2026-04-26 12:54 37.85634 -8.92823 33096 ft 460 kts 123°
2026-04-26 12:54 37.83658 -8.89673 33088 ft 457 kts 139°
2026-04-26 12:54 37.81097 -8.87333 33100 ft 455 kts 150°
2026-04-26 12:55 37.75514 -8.83528 33096 ft 456 kts 153°
2026-04-26 12:55 37.70223 -8.79151 33089 ft 456 kts 144°
2026-04-26 12:56 37.65069 -8.74465 33086 ft 456 kts 148°
2026-04-26 12:56 37.59773 -8.70071 33090 ft 456 kts 146°
2026-04-26 12:57 37.54558 -8.65486 33088 ft 458 kts 147°
2026-04-26 12:57 37.49282 -8.61031 33081 ft 456 kts 146°
2026-04-26 12:58 37.41398 -8.54273 33083 ft 457 kts 147°
2026-04-26 12:58 37.36149 -8.49768 33074 ft 457 kts 147°
2026-04-26 12:59 37.30910 -8.45323 33077 ft 458 kts 147°
2026-04-26 12:59 37.25654 -8.40838 33068 ft 456 kts 147°
2026-04-26 13:00 37.20395 -8.36380 33072 ft 458 kts 147°
2026-04-26 13:00 37.15118 -8.31900 33066 ft 457 kts 147°
2026-04-26 13:01 37.09856 -8.27450 33066 ft 457 kts 147°
2026-04-26 13:01 37.04599 -8.23007 33065 ft 455 kts 147°
2026-04-26 13:02 36.99340 -8.18570 33059 ft 456 kts 147°
2026-04-26 13:02 36.94070 -8.14131 33054 ft 457 kts 147°
2026-04-26 13:03 36.88794 -8.09700 33061 ft 456 kts 147°
2026-04-26 13:03 36.83526 -8.05275 33063 ft 457 kts 147°
2026-04-26 13:04 36.78250 -8.00855 33061 ft 457 kts 147°
2026-04-26 13:04 36.73014 -7.96478 33066 ft 456 kts 147°
2026-04-26 13:05 36.67725 -7.92059 33062 ft 459 kts 147°
2026-04-26 13:05 36.62423 -7.87641 33062 ft 457 kts 147°
2026-04-26 13:06 36.57107 -7.83213 33069 ft 459 kts 147°
2026-04-26 13:06 36.51804 -7.78812 33061 ft 459 kts 147°
2026-04-26 13:07 36.46478 -7.74393 33059 ft 460 kts 147°
2026-04-26 13:07 36.41145 -7.69978 33065 ft 461 kts 147°
2026-04-26 13:08 36.35808 -7.65564 33064 ft 460 kts 147°
2026-04-26 13:08 36.30520 -7.61206 33053 ft 458 kts 147°
2026-04-26 13:09 36.26103 -7.57560 33052 ft 459 kts 147°
2026-04-26 13:09 36.20743 -7.53151 33051 ft 462 kts 147°
2026-04-26 13:10 36.15365 -7.48734 33055 ft 461 kts 147°
2026-04-26 13:10 36.10008 -7.44342 33048 ft 463 kts 147°
2026-04-26 13:11 36.04813 -7.39795 33031 ft 458 kts 134°
2026-04-26 13:11 36.02932 -7.36627 33053 ft 462 kts 117°
2026-04-26 13:11 36.01841 -7.32888 33057 ft 464 kts 102°
2026-04-26 13:12 36.01216 -7.28959 32767 ft 467 kts 100°
2026-04-26 13:12 36.00646 -7.25028 32173 ft 460 kts 100°
2026-04-26 13:12 36.00097 -7.21172 31593 ft 451 kts 100°
2026-04-26 13:12 35.99520 -7.17377 31016 ft 449 kts 100°
2026-04-26 13:13 35.98931 -7.13613 30458 ft 443 kts 100°
2026-04-26 13:13 35.98367 -7.09890 29869 ft 440 kts 100°
2026-04-26 13:13 35.97815 -7.06206 29246 ft 445 kts 100°
2026-04-26 13:13 35.97239 -7.02455 28638 ft 443 kts 100°
2026-04-26 13:14 35.96667 -6.98754 28085 ft 436 kts 100°
2026-04-26 13:14 35.96104 -6.95061 27565 ft 445 kts 100°
2026-04-26 13:14 35.95527 -6.91293 27055 ft 445 kts 100°
2026-04-26 13:14 35.94950 -6.87574 26556 ft 438 kts 100°
2026-04-26 13:15 35.94383 -6.83897 26067 ft 436 kts 100°
2026-04-26 13:15 35.93812 -6.80193 25582 ft 449 kts 100°
2026-04-26 13:15 35.93216 -6.76353 25120 ft 457 kts 100°
2026-04-26 13:15 35.92621 -6.72534 24688 ft 450 kts 100°
2026-04-26 13:16 35.92230 -6.68742 24337 ft 444 kts 90°
2026-04-26 13:16 35.92315 -6.64941 24008 ft 443 kts 86°
2026-04-26 13:16 35.92447 -6.61148 23674 ft 441 kts 87°
2026-04-26 13:16 35.92526 -6.57419 23281 ft 425 kts 88°
2026-04-26 13:17 35.92677 -6.50025 22483 ft 431 kts 88°
2026-04-26 13:17 35.92770 -6.46327 22105 ft 431 kts 88°
2026-04-26 13:18 35.92918 -6.38982 21329 ft 426 kts 88°
2026-04-26 13:18 35.93000 -6.35341 20953 ft 424 kts 88°
2026-04-26 13:18 35.93147 -6.28110 20217 ft 420 kts 88°
2026-04-26 13:19 35.93222 -6.24517 19855 ft 417 kts 88°
2026-04-26 13:19 35.93293 -6.20951 19506 ft 415 kts 88°
2026-04-26 13:19 35.93361 -6.17438 19147 ft 413 kts 88°
2026-04-26 13:19 35.93430 -6.13897 18805 ft 412 kts 88°
2026-04-26 13:20 35.93493 -6.10379 18460 ft 410 kts 89°
2026-04-26 13:20 35.93554 -6.06865 18084 ft 408 kts 88°
2026-04-26 13:20 35.93618 -6.03376 17697 ft 406 kts 88°
2026-04-26 13:20 35.93678 -5.99911 17310 ft 402 kts 88°
2026-04-26 13:21 35.93730 -5.96472 16875 ft 400 kts 90°
2026-04-26 13:21 35.93599 -5.94164 16436 ft 398 kts 97°
2026-04-26 13:21 35.93006 -5.89823 15633 ft 372 kts 100°
2026-04-26 13:21 35.92590 -5.86764 15014 ft 351 kts 99°
2026-04-26 13:22 35.92240 -5.83883 14528 ft 330 kts 98°
2026-04-26 13:22 35.91893 -5.81164 14046 ft 312 kts 99°
2026-04-26 13:22 35.91548 -5.78582 13534 ft 299 kts 99°
2026-04-26 13:22 35.91225 -5.76069 13008 ft 297 kts 99°
2026-04-26 13:23 35.90899 -5.73550 12505 ft 297 kts 99°
2026-04-26 13:23 35.90570 -5.71045 12046 ft 293 kts 99°
2026-04-26 13:23 35.90251 -5.68571 11659 ft 290 kts 99°
2026-04-26 13:23 35.90201 -5.66088 11239 ft 295 kts 79°
2026-04-26 13:24 35.90896 -5.63755 10777 ft 283 kts 68°
2026-04-26 13:24 35.91578 -5.61534 10337 ft 271 kts 73°
2026-04-26 13:24 35.92160 -5.59366 9840 ft 262 kts 71°
2026-04-26 13:24 35.92816 -5.57310 9349 ft 252 kts 69°
2026-04-26 13:25 35.93431 -5.55364 8793 ft 236 kts 71°
2026-04-26 13:25 35.93963 -5.53499 8393 ft 223 kts 72°
2026-04-26 13:25 35.94479 -5.51777 8010 ft 207 kts 70°
2026-04-26 13:25 35.94975 -5.50152 7633 ft 200 kts 71°
2026-04-26 13:26 35.95448 -5.48555 7278 ft 196 kts 72°
2026-04-26 13:26 35.95924 -5.46969 6915 ft 198 kts 71°
2026-04-26 13:26 35.96403 -5.45378 6561 ft 197 kts 71°
2026-04-26 13:26 35.96872 -5.43801 6190 ft 195 kts 72°
2026-04-26 13:27 35.97340 -5.42254 5810 ft 189 kts 72°
2026-04-26 13:27 35.97962 -5.40872 5407 ft 191 kts 48°
2026-04-26 13:27 35.99040 -5.39915 5056 ft 190 kts 39°
2026-04-26 13:27 36.00175 -5.39074 4661 ft 191 kts 30°
2026-04-26 13:28 36.01520 -5.38969 4274 ft 203 kts 359°
2026-04-26 13:28 36.02912 -5.39274 3917 ft 201 kts 359°
2026-04-26 13:28 36.04253 -5.39309 3523 ft 181 kts 13°
2026-04-26 13:28 36.05437 -5.39255 3083 ft 158 kts 14°
2026-04-26 13:29 36.06479 -5.39263 2726 ft 147 kts 11°
2026-04-26 13:29 36.07153 -5.39338 2526 ft 145 kts
2026-04-26 13:29 36.08462 -5.39272 2300 ft 142 kts 22°
2026-04-26 13:29 36.09435 -5.39140 2161 ft 140 kts 21°
2026-04-26 13:30 36.10384 -5.38993 1991 ft 134 kts 22°
2026-04-26 13:30 36.11309 -5.38958 1842 ft 133 kts 17°
2026-04-26 13:30 36.12264 -5.39059 1575 ft 136 kts
2026-04-26 13:30 36.13188 -5.39219 1306 ft 132 kts
2026-04-26 13:31 36.14093 -5.39327 1025 ft 130 kts
2026-04-26 13:31 36.14878 -5.39065 812 ft 107 kts 49°
2026-04-26 13:31 36.15076 -5.38261 602 ft 102 kts 98°
2026-04-26 13:31 36.15010 -5.37357 352 ft 109 kts 85°
2026-04-26 13:32 36.15063 -5.36428 150 ft 108 kts 86°
2026-04-26 13:32 36.15096 -5.35564 27 ft 90 kts 85°
2026-04-26 13:32 36.15120 -5.34982 21 ft 41 kts 87°
2026-04-26 13:32 36.15130 -5.34735 19 ft 16 kts 87°
2026-04-26 13:33 36.15095 -5.34642 15 ft 11 kts 160°
2026-04-26 13:33 36.15020 -5.34642 15 ft 10 kts 198°
2026-04-26 13:33 36.14995 -5.34694 18 ft 6 kts 256°
2026-04-26 13:33 36.14994 -5.34698 18 ft 0 kts 256°